Rome, OR

1:52 AM MDT on September 23, 2017 (GMT -0600)
Rome State

Weather History for KREO - March, 2013

Change the Weather History Date:

Friday, March 1, 2013

  Actual Average Record
Temperature  
Mean Temperature 46 °F 37 °F  
Max Temperature 62 °F 50 °F 67 °F (2016)
Min Temperature 30 °F 24 °F 6 °F (1971)
Degree Days  
Heating Degree Days 19 28  
Month to date heating degree days 19 28  
Since 1 July heating degree days 4668 4762  
Cooling Degree Days 0 0  
Month to date cooling degree days 0 0  
Year to date cooling degree days 0 0  
Moisture  
Dew Point 31 °F    
Average Humidity 60    
Maximum Humidity 92    
Minimum Humidity 27    
Precipitation  
Precipitation 0.00 in 0.02 in 0.24 in (1982)
Month to date precipitation 0.00 0.02  
Year to date precipitation 0.78 1.43  
Sea Level Pressure  
Sea Level Pressure 30.45 in    
Wind  
Wind Speed 4 mph (South)    
Max Wind Speed 14 mph    
Max Gust Speed 20 mph    
T = Trace of Precipitation, MM = Missing Value Source: NWS Daily Summary

Daily Weather History Graph

Daily Weather History Graph

Search for Another Location

Airport or City:

Trip Planner

Search our weather history database for the weather conditions in past years. The results will help you decide how hot, cold, wet, or windy it might be!

Date:

Astronomy

Mar. 01, 2013 Rise Set
Actual Time 6:26 AM PST 5:41 PM PST
Civil Twilight 5:58 AM PST 6:09 PM PST
Nautical Twilight 5:25 AM PST 6:42 PM PST
Astronomical Twilight 4:53 AM PST 7:15 PM PST
Moon 10:27 PM PST (3/1) 8:09 AM PST (3/1)
Length of Visible Light 12h 11m
Length of Day
11h 15m
Waning Gibbous, 82% of the Moon is Illuminated
Mar 1
Waning Gibbous
Mar 4
Last Quarter
Mar 11
New
Mar 19
First Quarter
Mar 27
Full

Hourly Weather History & Observations

Time (PST) Temp. Windchill Dew Point Humidity Pressure Visibility Wind Dir Wind Speed Gust Speed Precip Events Conditions
12:52 AM 43.0 °F - 37.0 °F 80% 30.48 in - Calm Calm - N/A   Unknown
1:52 AM 39.0 °F 34.8 °F 35.1 °F 86% 30.49 in - South 5.8 mph - N/A   Unknown
2:52 AM 34.0 °F 28.8 °F 30.9 °F 89% 30.51 in - SSE 5.8 mph - N/A   Unknown
3:52 AM 33.1 °F 26.9 °F 30.0 °F 89% 30.51 in - SSE 6.9 mph - N/A   Unknown
4:52 AM 33.1 °F 26.9 °F 30.0 °F 89% 30.51 in - SSE 6.9 mph - N/A   Unknown
5:52 AM 30.0 °F 25.2 °F 28.0 °F 92% 30.52 in - SSE 4.6 mph - N/A   Unknown
6:52 AM 33.1 °F 24.9 °F 30.0 °F 89% 30.50 in - SSE 10.4 mph - N/A   Unknown
7:52 AM 39.9 °F 36.7 °F 34.0 °F 79% 30.49 in - SW 4.6 mph - N/A   Unknown
8:52 AM 44.1 °F 40.8 °F 35.1 °F 71% 30.49 in - WNW 5.8 mph - N/A   Unknown
9:52 AM 50.0 °F - 36.0 °F 59% 30.49 in - Calm Calm - N/A   Unknown
10:52 AM 53.1 °F - 35.1 °F 50% 30.48 in - Variable 4.6 mph - N/A   Unknown
11:52 AM 55.0 °F - 35.1 °F 47% 30.46 in - Calm Calm - N/A   Unknown
12:52 PM 57.9 °F - 34.0 °F 41% 30.41 in - Calm Calm - N/A   Unknown
1:52 PM 60.1 °F - 30.9 °F 33% 30.39 in - WSW 4.6 mph - N/A   Unknown
2:52 PM 61.0 °F - 30.0 °F 31% 30.39 in - Variable 4.6 mph - N/A   Unknown
3:52 PM 61.0 °F - 27.0 °F 27% 30.38 in - WSW 6.9 mph - N/A   Unknown
4:52 PM 60.1 °F - 28.0 °F 30% 30.38 in - WSW 4.6 mph - N/A   Unknown
5:52 PM 53.1 °F - 27.0 °F 37% 30.40 in - Calm Calm - N/A   Unknown
6:52 PM 46.0 °F - 26.1 °F 46% 30.43 in - Calm Calm - N/A   Unknown
7:52 PM 39.9 °F 36.7 °F 27.0 °F 60% 30.43 in - South 4.6 mph - N/A   Unknown
8:52 PM 39.9 °F 35.8 °F 28.0 °F 63% 30.42 in - SSW 5.8 mph - N/A   Unknown
9:52 PM 39.9 °F 37.8 °F 30.0 °F 68% 30.41 in - NNE 3.5 mph - N/A   Unknown
10:52 PM 37.9 °F 35.5 °F 30.9 °F 76% 30.40 in - NE 3.5 mph - N/A   Unknown
11:52 PM 35.1 °F 31.0 °F 30.0 °F 82% 30.39 in - East 4.6 mph - N/A   Unknown